Showing default

HEAD-3A, 57626

Orbit data source: Space-Track

HEAD-3A, 57626 is a payload satellite owned by HEAD (CN) in LEO that was launched on Mon, 14 Aug 2023 UTC via a KUAIZHOU-1A launch vehicle from the Xichang Space Center, China (XSC). Payload-class satellites include a variety of spacecraft equipped with specific instruments for various scientific and technological missions. These include communications satellites like Starlink; space stations such as the ISS; scientific satellites like the Hubble; Earth observation satellites from companies like Planet Labs, Umbra, and HawkEye 360; GPS; miniature CubeSats for education and research; and military/defense satellites.

Loading next visibility...
Identifier
57626, 2023-121A
Orbit
LEO
Country
Flag of CNCN / PRC
Related business
Manufacturer
IMI/CAS
Mission
Operational Commercial Communications
Bus & Motor
WN100, Unknown motor
Mass
40 kg wet, 40 kg dry
Launch date (UTC)
2023-08-14 (3 years ago)
Launch vehicle
KUAIZHOU-1A
Launch site
Xichang Space Center, China (XSC)
Object type
Payload
Rocket body
Debris
Shape & HBR
Box + 2 Pan, 1.0 m
Radar Cross Section
0.223 m², Medium (>0.1 m² and < 1m²)

Expand to show TLE details & history
Last TLE update: 1 day ago

TLE from 1 day ago
0 HEAD-3A
1 57626U 23121A   26172.52089580  .00000534  00000-0  14092-3 0  9991
2 57626  45.0024 290.3999 0007297 293.2149  66.7939 14.60689118152214
Epoch: 2026-06-21T12:30Z
TLE epoch observation values (Epoch: 2026-06-21T12:30:05.397Z)
Latitude
-0.00003°
Longitude
-166.8426°
Altitude
688.92 km
Speed
7.515 km/s
True Right ascension
19h 21m 35s
True Declination
0° 00' 00"
Sunlit
Object was in full shadow at epoch
Visualization orbit readout
Latitude
Unknown
Longitude
Unknown
Altitude
Unknown
Speed
Unknown
Apparent Right ascension
Unknown
Apparent Declination
Unknown
Sunlit
N/A
Visualization observer readout
Local Sidereal Time
00:32:06
Azimuth
Unknown
Elevation
Unknown
Doppler factor
Unknown
Orbital elements
Apogee altitude
697.671 km
Perigee altitude
687.352 km
Semi-major axis
7,070.649 km
Eccentricity
0.00073
Inclination
45.0024°
RAAN
290.3999°
Arg. of periapsis
293.2149°
True anomaly
66.87078°
Mean anomaly
66.7939°
Eccentric anomaly
66.83234°
Mean motion
3.65052 °/min
Orbital period
98.62 mins
BSTAR
0.00014092
Loading maneuver chart data...
Computing Atmospheric mass density...
Loading historical data...
Loading historical data...
Loading historical data...
Loading historical data...
Loading historical data...
Loading historical data...
Loading historical data...
Other satellites on launch #121 in the year 2023 (2023-08-14 UTC)

Documentation

Showing up to 5 results
|